Location: Newark
(7.0858°N, 171.3717°E)
Time: 15:47:11
(UTC+00:00)

S-56A Canister/Altair - All Passes

Search period start: 26 November 2020 00:00
Search period end: 06 December 2020 00:00
Orbit: 633 x 2499 km, 38.9° (Epoch: 25 November)

Date Brightness Start Highest point End Pass type
(mag) Time Alt. Az. Time Alt. Az. Time Alt. Az.
26 Nov - 02:46:25 10° S 02:55:05 17° SE 03:03:23 10° ESE daylight
26 Nov - 04:48:17 10° SSW 05:02:55 56° SE 05:14:31 10° ENE daylight
26 Nov - 06:55:40 10° WSW 07:09:09 52° NW 07:18:47 10° NNE visible
26 Nov - 09:10:56 10° WNW 09:15:01 13° NW 09:18:37 10° N visible
26 Nov - 15:33:27 10° NNW 15:36:59 23° NE 15:40:43 10° E visible
26 Nov - 17:36:28 10° WNW 17:40:37 32° SW 17:45:50 10° SSE visible
27 Nov - 02:14:16 10° S 02:21:19 15° SE 02:28:16 10° ESE daylight
27 Nov - 04:14:54 10° SSW 04:29:19 50° SE 04:41:18 10° ENE daylight
27 Nov - 06:21:33 10° WSW 06:35:49 61° NW 06:46:15 10° NE visible
27 Nov - 08:35:12 10° WNW 08:41:48 17° NW 08:47:15 10° N visible
27 Nov - 15:01:20 10° N 15:04:22 17° NE 15:07:25 10° E visible
27 Nov - 17:03:47 10° WNW 17:07:59 39° SW 17:13:06 10° SSE visible
28 Nov - 01:42:55 10° SSE 01:47:32 12° SE 01:52:10 10° SE daylight
28 Nov - 03:41:39 10° SSW 03:55:40 44° SE 04:07:56 10° ENE daylight
28 Nov - 05:47:34 10° WSW 06:02:25 69° NW 06:13:36 10° NE daylight
28 Nov - 07:59:57 10° W 08:08:32 21° NW 08:15:24 10° N visible
28 Nov - 14:29:20 10° N 14:31:41 14° NNE 14:33:58 10° ENE night (unlit)
28 Nov - 16:31:08 10° WNW 16:35:25 51° SW 16:40:25 10° SE visible
29 Nov - 03:08:33 10° SSW 03:22:00 39° SE 03:34:23 10° ENE daylight
29 Nov - 05:13:44 10° SW 05:28:56 78° NW 05:40:49 10° NE daylight
29 Nov - 07:24:59 10° W 07:35:14 25° NW 07:43:17 10° NNE visible
29 Nov - 13:57:38 10° NNE 13:58:55 11° NNE 14:00:11 10° NE night (unlit)
29 Nov - 15:58:30 10° NW 16:02:54 68° SW 16:07:43 10° SE visible
30 Nov - 02:35:35 10° SSW 02:48:20 34° SE 03:00:36 10° E daylight
30 Nov - 04:40:01 10° SW 04:55:22 87° NW 05:07:56 10° NE daylight
30 Nov - 06:50:14 10° W 07:01:52 30° NW 07:10:59 10° NNE visible
30 Nov - 15:25:53 10° NW 15:30:24 88° NE 15:35:02 10° SE visible
01 Dec - 02:02:47 10° SSW 02:14:41 30° SE 02:26:35 10° E daylight
01 Dec - 04:06:26 10° SW 04:21:45 84° SE 04:34:55 10° NE daylight
01 Dec - 06:15:41 10° W 06:28:25 36° NW 06:38:32 10° NNE visible
01 Dec - 14:53:16 10° NW 14:57:54 66° NE 15:02:21 10° ESE visible
02 Dec - 01:30:11 10° S 01:41:02 26° SE 01:52:16 10° E daylight
02 Dec - 03:33:01 10° SW 03:48:06 76° SE 04:01:45 10° NE daylight
02 Dec - 05:41:18 10° WSW 05:54:55 41° NW 06:05:57 10° NNE daylight
02 Dec - 07:58:36 10° NW 08:02:34 12° NNW 08:06:10 10° N visible
02 Dec - 14:20:38 10° NW 14:25:23 49° NE 14:29:40 10° ESE night (unlit)
02 Dec - 16:26:58 10° WSW 16:28:58 13° SW 16:31:04 10° SSW visible
03 Dec - 00:57:50 10° S 01:07:25 22° SE 01:17:37 10° E daylight
03 Dec - 02:59:43 10° SW 03:14:25 68° SE 03:28:27 10° ENE daylight
03 Dec - 05:07:07 10° WSW 05:21:21 47° NW 05:33:15 10° NNE daylight
03 Dec - 07:22:29 10° WNW 07:29:02 15° NNW 07:34:43 10° N visible
03 Dec - 13:47:58 10° NNW 13:52:49 38° NE 13:56:56 10° ESE night (unlit)
03 Dec - 15:53:27 10° W 15:56:20 17° SW 15:59:16 10° S visible
04 Dec - 00:25:47 10° S 00:33:50 18° SE 00:42:30 10° ESE daylight
04 Dec - 02:26:35 10° SSW 02:40:45 61° SE 02:55:00 10° ENE daylight
04 Dec - 04:33:07 10° WSW 04:47:43 54° NW 05:00:27 10° NE daylight
04 Dec - 06:46:58 10° WNW 06:55:26 18° NNW 07:02:41 10° N visible
04 Dec - 13:15:16 10° NNW 13:20:10 31° NE 13:24:13 10° E night (unlit)
04 Dec - 15:20:11 10° W 15:23:45 22° SW 15:27:15 10° S visible
04 Dec - 23:54:18 10° SSE 00:00:16 14° SE 00:06:43 10° ESE daylight
05 Dec - 01:53:35 10° SSW 02:07:07 53° SE 02:21:21 10° ENE daylight
05 Dec - 03:59:17 10° WSW 04:14:03 61° NW 04:27:30 10° NE daylight
05 Dec - 06:11:48 10° WNW 06:21:49 22° NNW 06:30:23 10° NNE daylight
05 Dec - 12:42:31 10° NNW 12:47:27 26° NNE 12:51:27 10° E night (unlit)
05 Dec - 14:47:01 10° WNW 14:51:14 29° SW 14:55:07 10° SSE night (unlit)
05 Dec - 23:24:36 10° SSE 23:26:46 10° SE 23:28:59 10° SE daylight
